Defiance, OH

3:34 AM EST on November 18, 2019 (GMT -0500)
Defiance Memorial

Weather History for KDFI - September, 2019

Change the Weather History Date:

Monday, September 16, 2019

  Actual Average Record
Temperature  
Mean Temperature 73 °F -  
Max Temperature 82 °F 74 °F 97 °F (1939)
Min Temperature 64 °F 51 °F 34 °F (1966)
Cooling Degree Days 8    
Growing Degree Days 23 (Base 50)    
Moisture  
Dew Point 65 °F    
Average Humidity 75    
Maximum Humidity 90    
Minimum Humidity 58    
Precipitation  
Precipitation 0.00 in - - ()
Sea Level Pressure  
Sea Level Pressure 30.07 in    
Wind  
Wind Speed 3 mph (NNE)    
Max Wind Speed 10 mph    
Max Gust Speed -    
Visibility 10 miles    
Events      
Averages and records for this station are not official NWS values.
T = Trace of Precipitation, MM = Missing Value Source: NWS Daily Summary

Daily Weather History Graph

Daily Weather History Graph

Search for Another Location

Airport or City:

Astronomy

Sep. 16, 2019 Rise Set
Actual Time 7:18 AM EDT 7:45 PM EDT
Civil Twilight 6:51 AM EDT 8:13 PM EDT
Nautical Twilight 6:18 AM EDT 8:45 PM EDT
Astronomical Twilight 5:44 AM EDT 9:19 PM EDT
Moon 9:18 PM EDT (9/16) 9:25 AM EDT (9/16)
Length of Visible Light 13h 22m
Length of Day
12h 26m
Waning Gibbous, 94% of the Moon is Illuminated
Sep 16
Waning Gibbous
Sep 21
Last Quarter
Sep 28
New
Oct 5
First Quarter
Oct 13
Full

Hourly Weather History & Observations

Time (EDT) Temp. Heat Index Dew Point Humidity Pressure Visibility Wind Dir Wind Speed Gust Speed Precip Events Conditions
12:53 AM 68.0 °F - 64.0 °F 87% 30.04 in 10.0 mi Calm Calm - N/A   Overcast
1:53 AM 69.1 °F - 64.0 °F 84% 30.04 in 10.0 mi Calm Calm - N/A   Overcast
3:53 AM 68.0 °F - 63.0 °F 84% 30.03 in 10.0 mi Calm Calm - N/A   Partly Cloudy
4:53 AM 64.9 °F - 62.1 °F 90% 30.04 in 10.0 mi Calm Calm - N/A   Scattered Clouds
5:04 AM 64.9 °F - 62.1 °F 90% 30.05 in 10.0 mi Calm Calm - N/A   Mostly Cloudy
5:53 AM 66.9 °F - 63.0 °F 87% 30.04 in 10.0 mi Calm Calm - N/A   Overcast
6:53 AM 68.0 °F - 64.0 °F 87% 30.06 in 10.0 mi Calm Calm - N/A   Overcast
7:53 AM 68.0 °F - 63.0 °F 84% 30.07 in 10.0 mi Calm Calm - N/A   Overcast
8:40 AM 69.1 °F - 63.0 °F 81% 30.09 in 10.0 mi Calm Calm - N/A   Overcast
8:53 AM 70.0 °F - 63.0 °F 78% 30.09 in 10.0 mi North 4.6 mph - N/A   Overcast
9:53 AM 73.0 °F - 64.0 °F 73% 30.10 in 10.0 mi North 3.5 mph - N/A   Overcast
10:53 AM 75.9 °F - 66.9 °F 74% 30.09 in 10.0 mi NE 6.9 mph - N/A   Partly Cloudy
11:53 AM 77.0 °F - 66.9 °F 71% 30.09 in 10.0 mi NE 5.8 mph - N/A   Overcast
12:18 PM 79.0 °F - 68.0 °F 69% 30.10 in 10.0 mi ENE 6.9 mph - N/A   Overcast
12:53 PM 78.1 °F - 68.0 °F 71% 30.09 in 10.0 mi North 4.6 mph - N/A   Overcast
1:53 PM 82.0 °F 84.9 °F 68.0 °F 62% 30.08 in 10.0 mi NNE 6.9 mph - N/A   Mostly Cloudy
2:06 PM 80.1 °F 82.7 °F 68.0 °F 67% 30.09 in 10.0 mi NNE 6.9 mph - N/A   Mostly Cloudy
2:36 PM 82.0 °F 84.5 °F 66.9 °F 60% 30.08 in 10.0 mi WNW 3.5 mph - N/A   Mostly Cloudy
2:53 PM 80.1 °F 82.1 °F 66.0 °F 62% 30.07 in 10.0 mi North 3.5 mph - N/A   Scattered Clouds
3:53 PM 82.0 °F 84.1 °F 66.0 °F 58% 30.05 in 10.0 mi North 9.2 mph - N/A   Partly Cloudy
4:53 PM 82.0 °F 84.1 °F 66.0 °F 58% 30.05 in 10.0 mi NNE 6.9 mph - N/A   Overcast
5:53 PM 80.1 °F 82.1 °F 66.0 °F 62% 30.06 in 10.0 mi NNE 10.4 mph - N/A   Clear
6:53 PM 77.0 °F - 64.0 °F 64% 30.06 in 10.0 mi North 10.4 mph - N/A   Partly Cloudy
7:53 PM 73.9 °F - 64.0 °F 71% 30.07 in 10.0 mi North 5.8 mph - N/A   Clear
8:53 PM 71.1 °F - 64.0 °F 78% 30.09 in 10.0 mi North 5.8 mph - N/A   Clear
9:53 PM 69.1 °F - 63.0 °F 81% 30.10 in 10.0 mi North 4.6 mph - N/A   Clear
10:53 PM 66.9 °F - 63.0 °F 87% 30.11 in 10.0 mi North 4.6 mph - N/A   Clear
11:53 PM 66.9 °F - 63.0 °F 87% 30.12 in 10.0 mi North 4.6 mph - N/A   Clear